Weather Roundup
Issued by NWS

Home | Current Version | Previous Version | Graphics & Text | Print | Product List | Glossary Off
Versions: 1 2 3 4 5 6 7 8 9 10 11 12 13 14 15 16 17 18 19 20 21 22 23 24 25 26 27 28 29 30 31 32 33 34 35 36 37 38 39 40 41 42 43 44 45 46 47 48 49 50

000
NZUS93 KARX 021410
HRRWXR

CURRENT HOURLY OBSERVATIONS ACROSS
MUCH OF THE UPPER MISSISSIPPI VALLEY
NATIONAL WEATHER SERVICE LA CROSSE WI
800 AM CST FRI DEC 02 2016


...SOUTHEAST MINNESOTA...


CITY           SKY/WX    TMP DP  RH WIND       PRES   REMARKS
ROCHESTER      CLOUDY    30  24  78 NW14      30.15R WCI  19
ROCHESTER/MAYO CLOUDY    30  23  74 NW9       30.16R WCI  22
WINONA         CLOUDY    32  27  80 NW6       30.18R WCI  26
AUSTIN         CLOUDY    30  25  80 NW8       30.16R WCI  23
ALBERT LEA     CLOUDY    34  27  75 NW7       30.17R WCI  28
DODGE CENTER   CLOUDY    28  23  80 NW8       30.16R WCI  20
PRESTON        CLOUDY    30  22  73 NW8       30.15R WCI  22
OWATONNA       CLOUDY    30  23  74 NW9       30.17S WCI  22
FARIBAULT      CLOUDY    30  25  80 NW6       30.18R WCI  24
$$

...ELSEWHERE IN MINNESOTA...


CITY           SKY/WX    TMP DP  RH WIND       PRES   REMARKS
MINNEAPOLIS    CLOUDY    31  20  63 W7        30.18R WCI  24
INTNL FALLS    CLOUDY    25  21  85 NW3       30.15R
DULUTH         CLOUDY    27  22  81 NW7       30.11R WCI  19
RED WING       CLOUDY    32  21  64 N6        30.17R WCI  26
REDWOOD FALLS  CLOUDY    30  22  72 NW8       30.20R WCI  22
MANKATO        CLOUDY    30  24  78 NW10      30.19R WCI  21
WORTHINGTON    CLOUDY    29  26  89 N8        30.19R WCI  21
FAIRMONT       CLOUDY    30  26  85 N10       30.20R WCI  21
$$

...SOUTHWEST WISCONSIN...


CITY           SKY/WX    TMP DP  RH WIND       PRES   REMARKS
LA CROSSE      CLOUDY    34  23  64 NW9       30.17R WCI  27
PRAIRIE DU CHI CLOUDY    34  26  73 NW7       30.16R WCI  28
BOSCOBEL       CLOUDY    36  23  59 NW7       30.16R WCI  30
LONE ROCK      CLOUDY    34  25  69 NW9       30.15R WCI  27
PLATTEVILLE    CLOUDY    34  34  99 W6        30.14R WCI  29
FORT MC COY    CLOUDY    31  23  71 NW10      30.16R WCI  22
CAMP DOUGLAS   CLOUDY    30  25  80 W8        30.13R WCI  23
MAUSTON-NEW LI CLOUDY    32  24  72 W7        30.13R WCI  26
VIROQUA        CLOUDY    31  26  83 NW8       30.12R WCI  23
WIS DELLS      CLOUDY    31  23  70 NW9       30.12R WCI  23
$$

...ELSEWHERE IN WISCONSIN...


CITY           SKY/WX    TMP DP  RH WIND       PRES   REMARKS
MILWAUKEE      CLOUDY    35  24  64 NW10      30.10R WCI  27
MADISON        CLOUDY    32  24  72 N8        30.12R WCI  25
GREEN BAY      CLOUDY    34  25  69 NW12      30.08R WCI  25
EAU CLAIRE     CLOUDY    30  21  69 NW9       30.15R WCI  22
BLACK RVR FLS  CLOUDY    32  21  65 CALM      30.15R
MEDFORD        CLOUDY    28  22  79 N8        30.08R WCI  19
WAUSAU         CLOUDY    28  22  78 NW9       30.08R WCI  19
WIS RAPIDS     CLOUDY    31  23  72 NW8       30.12R WCI  23
MARSHFIELD     CLOUDY    29  21  72 NW10      30.09R WCI  20
RICE LAKE      CLOUDY    30  23  75 NW3       30.15R
$$

...NORTHEAST IOWA...


CITY           SKY/WX    TMP DP  RH WIND       PRES   REMARKS
WATERLOO       CLOUDY    33  27  78 NW8       30.18R WCI  26
DUBUQUE        MOCLDY    33  32  96 W9        30.15R WCI  25
DECORAH        CLOUDY    32  27  80 N9        30.14R WCI  24
MASON CITY     CLOUDY    31  26  82 NW10      30.19R WCI  22
CHARLES CITY   CLOUDY    32  28  86 NW8       30.18R WCI  25
OELWEIN        CLOUDY    32  30  93 NW13G20   30.17R WCI  22
$$

...ELSEWHERE IN IOWA...


CITY           SKY/WX    TMP DP  RH WIND       PRES   REMARKS
DES MOINES     CLOUDY    36  31  82 NW6       30.21R WCI  31
IOWA CITY      CLOUDY    36  32  85 W7        30.20R WCI  30
FORT DODGE     CLOUDY    34  28  80 N6        30.20R WCI  29
MARSHALLTOWN   CLOUDY    34  32  92 N8        30.18R WCI  27
CEDAR RAPIDS   CLOUDY    34  34 100 NW10      30.17R WCI  26
$$

...NORTHERN ILLINOIS...


CITY           SKY/WX    TMP DP  RH WIND       PRES   REMARKS
CHICAGO-OHARE  CLOUDY    37  31  78 W9        30.11R WCI  30
CHICAGO-MIDWAY CLOUDY    38  31  76 W9        30.13R WCI  31
MOLINE         CLOUDY    38  32  79 W7        30.17R WCI  33
ROCKFORD       CLOUDY    37  32  82 W8        30.15R WCI  31
PEORIA         CLOUDY    37  32  82 W7        30.19R WCI  32
$$

NOTE: "FAIR" INDICATES FEW OR NO CLOUDS BELOW 12,000 FEET WITH NO
SIGNIFICANT WEATHER AND/OR OBSTRUCTIONS TO VISIBILITY. WIND
SPEEDS ARE IN MILES-PER-HOUR.




USA.gov is the U.S. government's official web portal to all federal, state and local government web resources and services.